Branson West Muni - Emerson F, MO

8:07 AM CDT on April 25, 2017 (GMT -0500)
Branson West Muni - Emerson F

Weather History for KFWB - February, 2014

Change the Weather History Date:

Tuesday, February 11, 2014

  Actual Average (KHRO) Record (KHRO)
Temperature  
Mean Temperature 23 °F -  
Max Temperature 32 °F 49 °F 84 °F (2017)
Min Temperature 14 °F 28 °F -6 °F (1981)
Degree Days  
Heating Degree Days 42    
Moisture  
Dew Point 2 °F    
Average Humidity 43    
Maximum Humidity 67    
Minimum Humidity 25    
Precipitation  
Precipitation 0.00 in - - ()
Sea Level Pressure  
Sea Level Pressure 30.32 in    
Wind  
Wind Speed 6 mph (ENE)    
Max Wind Speed 9 mph    
Max Gust Speed -    
Visibility 10 miles    
Events      
Averages and records for this station are not official NWS values.
T = Trace of Precipitation, MM = Missing Value Source: NWS Daily Summary

Daily Weather History Graph

Daily Weather History Graph

Search for Another Location

Airport or City:

Trip Planner

Search our weather history database for the weather conditions in past years. The results will help you decide how hot, cold, wet, or windy it might be!

Date:

Astronomy

Feb. 11, 2014 Rise Set
Actual Time 7:06 AM CST 5:50 PM CST
Civil Twilight 6:39 AM CST 6:16 PM CST
Nautical Twilight 6:09 AM CST 6:47 PM CST
Astronomical Twilight 5:38 AM CST 7:17 PM CST
Moon 3:13 PM CST (2/11) 4:41 AM CST (2/11)
Length of Visible Light 11h 37m
Length of Day
10h 43m
Waxing Gibbous, 91% of the Moon is Illuminated
Feb 11
Waxing Gibbous
Feb 14
Full
Feb 22
Last Quarter
Mar 1
New
Mar 8
First Quarter

Hourly Weather History & Observations

Time (CST) Temp. Windchill Dew Point Humidity Pressure Visibility Wind Dir Wind Speed Gust Speed Precip Events Conditions
12:15 AM 19.4 °F 9.5 °F 6.8 °F 58% 30.34 in 10.0 mi NE 8.1 mph - N/A   Overcast
12:35 AM 17.6 °F 8.2 °F 5.0 °F 58% 30.34 in 10.0 mi NE 6.9 mph - N/A   Overcast
12:55 AM 17.6 °F 9.3 °F 5.0 °F 58% 30.34 in 10.0 mi NE 5.8 mph - N/A   Overcast
1:15 AM 17.6 °F 10.7 °F 5.0 °F 58% 30.34 in 10.0 mi NE 4.6 mph - N/A   Overcast
1:35 AM 17.6 °F 8.2 °F 5.0 °F 58% 30.34 in 10.0 mi NNE 6.9 mph - N/A   Overcast
1:55 AM 17.6 °F 9.3 °F 5.0 °F 58% 30.35 in 10.0 mi NE 5.8 mph - N/A   Overcast
2:15 AM 17.6 °F 10.7 °F 5.0 °F 58% 30.35 in 10.0 mi NE 4.6 mph - N/A   Overcast
2:35 AM 17.6 °F 10.7 °F 5.0 °F 58% 30.36 in 10.0 mi NNE 4.6 mph - N/A   Overcast
2:55 AM 15.8 °F 8.6 °F 5.0 °F 62% 30.36 in 10.0 mi NE 4.6 mph - N/A   Overcast
3:15 AM 15.8 °F 10.2 °F 5.0 °F 62% 30.36 in 10.0 mi NNE 3.5 mph - N/A   Overcast
3:35 AM 15.8 °F 6.1 °F 5.0 °F 62% 30.36 in 10.0 mi NE 6.9 mph - N/A   Overcast
3:55 AM 15.8 °F 7.2 °F 5.0 °F 62% 30.35 in 10.0 mi NE 5.8 mph - N/A   Overcast
4:15 AM 15.8 °F - 5.0 °F 62% 30.36 in 10.0 mi Calm Calm - N/A   Overcast
4:35 AM 15.8 °F 6.1 °F 5.0 °F 62% 30.36 in 10.0 mi NNE 6.9 mph - N/A   Overcast
4:55 AM 15.8 °F 5.1 °F 3.2 °F 58% 30.36 in 10.0 mi NE 8.1 mph - N/A   Mostly Cloudy
5:15 AM 15.8 °F 7.2 °F 5.0 °F 62% 30.36 in 10.0 mi NE 5.8 mph - N/A   Overcast
5:35 AM 15.8 °F 10.2 °F 5.0 °F 62% 30.37 in 10.0 mi NNE 3.5 mph - N/A   Overcast
5:55 AM 15.8 °F 8.6 °F 5.0 °F 62% 30.37 in 10.0 mi NE 4.6 mph - N/A   Overcast
6:15 AM 15.8 °F 8.6 °F 5.0 °F 62% 30.38 in 10.0 mi NNE 4.6 mph - N/A   Overcast
6:35 AM 15.8 °F 10.2 °F 5.0 °F 62% 30.37 in 10.0 mi ENE 3.5 mph - N/A   Overcast
6:55 AM 14.0 °F 8.2 °F 5.0 °F 67% 30.38 in 10.0 mi ENE 3.5 mph - N/A   Overcast
7:15 AM 15.8 °F 7.2 °F 5.0 °F 62% 30.38 in 10.0 mi NE 5.8 mph - N/A   Overcast
7:35 AM 15.8 °F 7.2 °F 5.0 °F 62% 30.38 in 10.0 mi NE 5.8 mph - N/A   Overcast
7:55 AM 15.8 °F 7.2 °F 5.0 °F 62% 30.39 in 10.0 mi NE 5.8 mph - N/A   Scattered Clouds
8:15 AM 15.8 °F 7.2 °F 3.2 °F 58% 30.39 in 10.0 mi ENE 5.8 mph - N/A   Clear
8:35 AM 15.8 °F 10.2 °F 1.4 °F 53% 30.40 in 10.0 mi NE 3.5 mph - N/A   Mostly Cloudy
8:55 AM 17.6 °F - 3.2 °F 53% 30.41 in 10.0 mi Calm Calm - N/A   Mostly Cloudy
9:15 AM 17.6 °F 10.7 °F 3.2 °F 53% 30.41 in 10.0 mi ENE 4.6 mph - N/A   Scattered Clouds
9:35 AM 19.4 °F 14.3 °F 1.4 °F 46% 30.40 in 10.0 mi East 3.5 mph - N/A   Partly Cloudy
9:55 AM 19.4 °F 12.8 °F 1.4 °F 46% 30.40 in 10.0 mi ENE 4.6 mph - N/A   Clear
10:15 AM 21.2 °F 13.6 °F 1.4 °F 42% 30.40 in 10.0 mi ENE 5.8 mph - N/A   Clear
10:35 AM 23.0 °F - -0.4 °F 36% - 10.0 mi North - - N/A   Clear
10:55 AM 24.8 °F 20.5 °F -0.4 °F 34% 30.40 in 10.0 mi NE 3.5 mph - N/A   Clear
11:15 AM 24.8 °F 16.9 °F -2.2 °F 31% 30.38 in 10.0 mi SE 6.9 mph - N/A   Clear
11:35 AM 26.6 °F 18.2 °F -0.4 °F 31% 30.38 in 10.0 mi ENE 8.1 mph - N/A   Clear
11:55 AM 26.6 °F 18.2 °F -0.4 °F 31% 30.37 in 10.0 mi SE 8.1 mph - N/A   Clear
12:15 PM 28.4 °F 24.6 °F -0.4 °F 29% 30.36 in 10.0 mi ESE 3.5 mph - N/A   Clear
12:35 PM 28.4 °F 22.2 °F -0.4 °F 29% 30.35 in 10.0 mi ENE 5.8 mph - N/A   Clear
12:55 PM 28.4 °F 21.2 °F -0.4 °F 29% 30.33 in 10.0 mi SE 6.9 mph - N/A   Clear
1:15 PM 28.4 °F 23.3 °F -0.4 °F 29% 30.32 in 10.0 mi East 4.6 mph - N/A   Clear
1:35 PM 30.2 °F 25.4 °F -0.4 °F 27% 30.31 in 10.0 mi SSE 4.6 mph - N/A   Clear
1:55 PM 32.0 °F 26.4 °F 1.4 °F 27% 30.30 in 10.0 mi East 5.8 mph - N/A   Clear
2:15 PM 32.0 °F 25.6 °F 1.4 °F 27% 30.29 in 10.0 mi NE 6.9 mph - N/A   Clear
2:35 PM 32.0 °F 26.4 °F 1.4 °F 27% 30.28 in 10.0 mi East 5.8 mph - N/A   Clear
2:55 PM 32.0 °F 26.4 °F -0.4 °F 25% 30.27 in 10.0 mi ESE 5.8 mph - N/A   Clear
3:15 PM 32.0 °F 27.5 °F -0.4 °F 25% 30.26 in 10.0 mi ENE 4.6 mph - N/A   Clear
3:35 PM 32.0 °F 24.8 °F 1.4 °F 27% 30.25 in 10.0 mi SE 8.1 mph - N/A   Clear
3:55 PM 32.0 °F 25.6 °F -0.4 °F 25% 30.24 in 10.0 mi ESE 6.9 mph - N/A   Clear
4:15 PM 32.0 °F 26.4 °F 1.4 °F 27% 30.24 in 10.0 mi ENE 5.8 mph - N/A   Clear
4:35 PM 32.0 °F 25.6 °F 1.4 °F 27% 30.23 in 10.0 mi ESE 6.9 mph - N/A   Clear
4:55 PM 32.0 °F 24.2 °F 1.4 °F 27% 30.23 in 10.0 mi ENE 9.2 mph - N/A   Clear
5:15 PM 32.0 °F 26.4 °F 1.4 °F 27% 30.24 in 10.0 mi ENE 5.8 mph - N/A   Clear
5:35 PM 30.2 °F 23.4 °F 1.4 °F 29% 30.24 in 10.0 mi ENE 6.9 mph - N/A   Clear
5:55 PM 30.2 °F 25.4 °F -0.4 °F 27% 30.24 in 10.0 mi East 4.6 mph - N/A   Clear
6:15 PM 28.4 °F 24.6 °F -0.4 °F 29% 30.24 in 10.0 mi ENE 3.5 mph - N/A   Clear
6:35 PM 28.4 °F - -0.4 °F 29% 30.24 in 10.0 mi Calm Calm - N/A   Clear
6:55 PM 26.6 °F 21.2 °F -0.4 °F 31% 30.25 in 10.0 mi ESE 4.6 mph - N/A   Clear
7:15 PM 26.6 °F 22.6 °F -0.4 °F 31% 30.25 in 10.0 mi SE 3.5 mph - N/A   Clear
7:35 PM 26.6 °F 20.0 °F 1.4 °F 34% 30.25 in 10.0 mi SE 5.8 mph - N/A   Clear
7:55 PM 26.6 °F 19.1 °F 3.2 °F 37% 30.25 in 10.0 mi SE 6.9 mph - N/A   Clear
8:15 PM 26.6 °F 21.2 °F 1.4 °F 34% 30.26 in 10.0 mi SE 4.6 mph - N/A   Clear
8:35 PM 26.6 °F 21.2 °F 1.4 °F 34% 30.26 in 10.0 mi ESE 4.6 mph - N/A   Clear
8:55 PM 24.8 °F - 1.4 °F 36% 30.26 in 10.0 mi Calm Calm - N/A   Clear
9:15 PM 24.8 °F 20.5 °F 1.4 °F 36% 30.26 in 10.0 mi ESE 3.5 mph - N/A   Clear
9:35 PM 24.8 °F 20.5 °F 1.4 °F 36% 30.27 in 10.0 mi ESE 3.5 mph - N/A   Clear
9:55 PM 23.0 °F 15.8 °F 3.2 °F 43% 30.26 in 10.0 mi ESE 5.8 mph - N/A   Clear
10:15 PM 23.0 °F 15.8 °F 3.2 °F 43% 30.27 in 10.0 mi ESE 5.8 mph - N/A   Clear
10:35 PM 23.0 °F 14.7 °F 3.2 °F 43% 30.27 in 10.0 mi SE 6.9 mph - N/A   Clear
10:55 PM 23.0 °F 15.8 °F 3.2 °F 43% 30.26 in 10.0 mi SE 5.8 mph - N/A   Clear
11:15 PM 23.0 °F 15.8 °F 1.4 °F 39% 30.25 in 10.0 mi ESE 5.8 mph - N/A   Clear
11:35 PM 23.0 °F 15.8 °F 1.4 °F 39% 30.23 in 10.0 mi ESE 5.8 mph - N/A   Clear
11:55 PM 23.0 °F 13.9 °F 1.4 °F 39% 30.22 in 10.0 mi ESE 8.1 mph - N/A   Clear